Location: Unspecified
(17.6330°N, 0.0000°E)
Time: 17:40:47
(UTC+00:00)

A-11 Canister half - Pass Details

Date: 24 June 2019
Orbit: 1514 x 1686 km, 47.2° (Epoch: 24 August)

Event Time Altitude Azimuth Distance (km) Brightness Sun altitude
Rises 14:57:46 0° 329° (NNW) 4,777 12.0 48.7°
Reaches altitude 10° 15:02:35 10° 349° (N) 3,757 11.4 47.6°
Maximum altitude 15:08:10 17° 26° (NNE) 3,215 10.8 46.3°
Drops below altitude 10° 15:13:40 10° 63° (ENE) 3,691 10.8 45.1°
Sets 15:18:17 0° 83° (E) 4,657 11.1 44.0°
